Year,Month,Day,Hour,Minute,Value (Times are PST for temperature in C)
2013,05,01,00,00,7.00
2013,05,01,00,01,7.00
2013,05,01,00,02,7.00
2013,05,01,00,03,6.90
2013,05,01,00,04,6.90
2013,05,01,00,05,6.90
2013,05,01,00,06,6.80
2013,05,01,00,07,6.80
2013,05,01,00,08,6.70
2013,05,01,00,09,6.70
2013,05,01,00,10,6.70
2013,05,01,00,11,6.60
2013,05,01,00,12,6.60
2013,05,01,00,13,6.50
2013,05,01,00,14,6.50
2013,05,01,00,15,6.40
2013,05,01,00,16,6.30
2013,05,01,00,17,6.30
2013,05,01,00,18,6.20
2013,05,01,00,19,6.20
2013,05,01,00,20,6.20
2013,05,01,00,21,6.10
2013,05,01,00,22,6.10
2013,05,01,00,23,6.10
2013,05,01,00,24,6.00
2013,05,01,00,25,6.00
2013,05,01,00,26,5.90
2013,05,01,00,27,5.90
2013,05,01,00,28,5.90
2013,05,01,00,29,5.80
2013,05,01,00,30,5.80
2013,05,01,00,31,5.80
2013,05,01,00,32,5.80
2013,05,01,00,33,5.80
2013,05,01,00,34,5.70
2013,05,01,00,35,5.70
2013,05,01,00,36,5.70
2013,05,01,00,37,5.70
2013,05,01,00,38,5.70
2013,05,01,00,39,5.60
2013,05,01,00,40,5.60
2013,05,01,00,41,5.60
2013,05,01,00,42,5.60
2013,05,01,00,43,5.50
2013,05,01,00,44,5.50
2013,05,01,00,45,5.50
2013,05,01,00,46,5.50
2013,05,01,00,47,5.50
2013,05,01,00,48,5.40
2013,05,01,00,49,5.40
2013,05,01,00,50,5.40
2013,05,01,00,51,5.30
2013,05,01,00,52,5.30
2013,05,01,00,53,5.30
2013,05,01,00,54,5.30
2013,05,01,00,55,5.30
2013,05,01,00,56,5.30
2013,05,01,00,57,5.30
2013,05,01,00,58,5.30
2013,05,01,00,59,5.30
2013,05,01,01,00,5.30
2013,05,01,01,01,5.20
2013,05,01,01,02,5.20
2013,05,01,01,03,5.20
2013,05,01,01,04,5.20
2013,05,01,01,05,5.20
2013,05,01,01,06,5.30
2013,05,01,01,07,5.30
2013,05,01,01,08,5.30
2013,05,01,01,09,5.30
2013,05,01,01,10,5.30
2013,05,01,01,11,5.30
2013,05,01,01,12,5.30
2013,05,01,01,13,5.30
2013,05,01,01,14,5.30
2013,05,01,01,15,5.40
2013,05,01,01,16,5.40
2013,05,01,01,17,5.40
2013,05,01,01,18,5.40
2013,05,01,01,19,5.40
2013,05,01,01,20,5.50
2013,05,01,01,21,5.50
2013,05,01,01,22,5.50
2013,05,01,01,23,5.50
2013,05,01,01,24,5.50
2013,05,01,01,25,5.50
2013,05,01,01,26,5.50
2013,05,01,01,27,5.50
2013,05,01,01,28,5.50
2013,05,01,01,29,5.50
2013,05,01,01,30,5.50
2013,05,01,01,31,5.60
2013,05,01,01,32,5.60
2013,05,01,01,33,5.60
2013,05,01,01,34,5.60
2013,05,01,01,35,5.60
2013,05,01,01,36,5.60
2013,05,01,01,37,5.60
2013,05,01,01,38,5.60
2013,05,01,01,39,5.60
2013,05,01,01,40,5.60
2013,05,01,01,41,5.60
2013,05,01,01,42,5.60
2013,05,01,01,43,5.60
2013,05,01,01,44,5.70
2013,05,01,01,45,5.70
2013,05,01,01,46,5.60
2013,05,01,01,47,5.60
2013,05,01,01,48,5.50
2013,05,01,01,49,5.50
2013,05,01,01,50,5.50
2013,05,01,01,51,5.50
2013,05,01,01,52,5.40
2013,05,01,01,53,5.40
2013,05,01,01,54,5.40
2013,05,01,01,55,5.30
2013,05,01,01,56,5.30
2013,05,01,01,57,5.20
2013,05,01,01,58,5.10
2013,05,01,01,59,5.10
2013,05,01,02,00,5.10
2013,05,01,02,01,5.10
2013,05,01,02,02,5.00
2013,05,01,02,03,4.90
2013,05,01,02,04,4.90
2013,05,01,02,05,4.90
2013,05,01,02,06,4.80
2013,05,01,02,07,4.80
2013,05,01,02,08,4.80
2013,05,01,02,09,4.80
2013,05,01,02,10,4.80
2013,05,01,02,11,4.80
2013,05,01,02,12,4.80
2013,05,01,02,13,4.80
2013,05,01,02,14,4.80
2013,05,01,02,15,4.80
2013,05,01,02,16,4.80
2013,05,01,02,17,4.80
2013,05,01,02,18,4.80
2013,05,01,02,19,4.70
2013,05,01,02,20,4.70
2013,05,01,02,21,4.70
2013,05,01,02,22,4.70
2013,05,01,02,23,4.80
2013,05,01,02,24,4.80
2013,05,01,02,25,4.80
2013,05,01,02,26,4.80
2013,05,01,02,27,4.80
2013,05,01,02,28,4.80
2013,05,01,02,29,4.80
2013,05,01,02,30,4.70
2013,05,01,02,31,4.70
2013,05,01,02,32,4.70
2013,05,01,02,33,4.70
2013,05,01,02,34,4.70
2013,05,01,02,35,4.70
2013,05,01,02,36,4.70
2013,05,01,02,37,4.70
2013,05,01,02,38,4.70
2013,05,01,02,39,4.70
2013,05,01,02,40,4.70
2013,05,01,02,41,4.70
2013,05,01,02,42,4.70
2013,05,01,02,43,4.70
2013,05,01,02,44,4.70
2013,05,01,02,45,4.70
2013,05,01,02,46,4.80
2013,05,01,02,47,4.80
2013,05,01,02,48,4.80
2013,05,01,02,49,4.80
2013,05,01,02,50,4.80
2013,05,01,02,51,4.80
2013,05,01,02,52,4.70
2013,05,01,02,53,4.70
2013,05,01,02,54,4.70
2013,05,01,02,55,4.70
2013,05,01,02,56,4.70
2013,05,01,02,57,4.70
2013,05,01,02,58,4.70
2013,05,01,02,59,4.60
2013,05,01,03,00,4.60
2013,05,01,03,01,4.60
2013,05,01,03,02,4.60
2013,05,01,03,03,4.60
2013,05,01,03,06,4.60
2013,05,01,03,07,4.60
2013,05,01,03,08,4.60
2013,05,01,03,09,4.60
2013,05,01,03,10,4.60
2013,05,01,03,11,4.60
2013,05,01,03,12,4.60
2013,05,01,03,13,4.60
2013,05,01,03,14,4.60
2013,05,01,03,15,4.60
2013,05,01,03,16,4.60
2013,05,01,03,17,4.60
2013,05,01,03,18,4.60
2013,05,01,03,19,4.60
2013,05,01,03,20,4.50
2013,05,01,03,21,4.50
2013,05,01,03,22,4.50
2013,05,01,03,23,4.50
2013,05,01,03,24,4.50
2013,05,01,03,25,4.50
2013,05,01,03,26,4.50
2013,05,01,03,27,4.50
2013,05,01,03,28,4.50
2013,05,01,03,29,4.50
2013,05,01,03,30,4.50
2013,05,01,03,31,4.50
2013,05,01,03,32,4.50
2013,05,01,03,33,4.50
2013,05,01,03,34,4.50
2013,05,01,03,35,4.50
2013,05,01,03,36,4.50
2013,05,01,03,37,4.60
2013,05,01,03,38,4.60
2013,05,01,03,39,4.70
2013,05,01,03,40,4.70
2013,05,01,03,41,4.70
2013,05,01,03,42,4.80
2013,05,01,03,43,4.80
2013,05,01,03,44,4.80
2013,05,01,03,45,4.80
2013,05,01,03,46,4.90
2013,05,01,03,47,4.90
2013,05,01,03,48,4.90
2013,05,01,03,49,4.90
2013,05,01,03,50,5.00
2013,05,01,03,51,5.00
2013,05,01,03,52,5.00
2013,05,01,03,53,5.00
2013,05,01,03,54,5.00
2013,05,01,03,55,5.00
2013,05,01,03,56,5.10
2013,05,01,03,57,5.10
2013,05,01,03,58,5.10
2013,05,01,03,59,5.10
2013,05,01,04,00,5.10
2013,05,01,04,01,5.10
2013,05,01,04,02,5.10
2013,05,01,04,03,5.10
2013,05,01,04,04,5.10
2013,05,01,04,05,5.10
2013,05,01,04,06,5.20
2013,05,01,04,07,5.20
2013,05,01,04,08,5.20
2013,05,01,04,09,5.20
2013,05,01,04,10,5.20
2013,05,01,04,11,5.20
2013,05,01,04,12,5.10
2013,05,01,04,13,5.10
2013,05,01,04,14,5.10
2013,05,01,04,15,5.10
2013,05,01,04,16,5.10
2013,05,01,04,17,5.00
2013,05,01,04,18,5.00
2013,05,01,04,19,5.00
2013,05,01,04,20,5.00
2013,05,01,04,21,5.00
2013,05,01,04,22,4.90
2013,05,01,04,23,5.00
2013,05,01,04,24,4.90
2013,05,01,04,25,4.90
2013,05,01,04,26,4.90
2013,05,01,04,27,4.90
2013,05,01,04,28,4.90
2013,05,01,04,29,4.90
2013,05,01,04,30,4.90
2013,05,01,04,31,4.90
2013,05,01,04,32,4.90
2013,05,01,04,33,4.90
2013,05,01,04,34,4.90
2013,05,01,04,35,4.80
2013,05,01,04,36,4.80
2013,05,01,04,37,4.80
2013,05,01,04,38,4.80
2013,05,01,04,39,4.80
2013,05,01,04,40,4.70
2013,05,01,04,41,4.70
2013,05,01,04,42,4.70
2013,05,01,04,43,4.60
2013,05,01,04,44,4.60
2013,05,01,04,45,4.60
2013,05,01,04,46,4.60
2013,05,01,04,47,4.60
2013,05,01,04,48,4.60
2013,05,01,04,49,4.60
2013,05,01,04,50,4.50
2013,05,01,04,51,4.50
2013,05,01,04,52,4.40
2013,05,01,04,53,4.40
2013,05,01,04,54,4.40
2013,05,01,04,55,4.30
2013,05,01,04,56,4.30
2013,05,01,04,57,4.30
2013,05,01,04,58,4.30
2013,05,01,04,59,4.30
2013,05,01,05,00,4.30
2013,05,01,05,01,4.30
2013,05,01,05,02,4.30
2013,05,01,05,03,4.20
2013,05,01,05,04,4.20
2013,05,01,05,05,4.20
2013,05,01,05,06,4.20
2013,05,01,05,07,4.20
2013,05,01,05,08,4.20
2013,05,01,05,09,4.20
2013,05,01,05,10,4.20
2013,05,01,05,11,4.20
2013,05,01,05,12,4.20
2013,05,01,05,13,4.20
2013,05,01,05,14,4.10
2013,05,01,05,15,4.10
2013,05,01,05,16,4.20
2013,05,01,05,17,4.20
2013,05,01,05,18,4.20
2013,05,01,05,19,4.30
2013,05,01,05,20,4.30
2013,05,01,05,21,4.30
2013,05,01,05,22,4.30
2013,05,01,05,23,4.30
2013,05,01,05,24,4.30
2013,05,01,05,25,4.30
2013,05,01,05,26,4.30
2013,05,01,05,27,4.30
2013,05,01,05,28,4.30
2013,05,01,05,29,4.30
2013,05,01,05,30,4.30
2013,05,01,05,31,4.30
2013,05,01,05,32,4.30
2013,05,01,05,33,4.30
2013,05,01,05,34,4.20
2013,05,01,05,35,4.20
2013,05,01,05,36,4.20
2013,05,01,05,37,4.20
2013,05,01,05,38,4.10
2013,05,01,05,39,4.10
2013,05,01,05,40,4.10
2013,05,01,05,41,4.00
2013,05,01,05,42,4.00
2013,05,01,05,43,3.90
2013,05,01,05,44,3.90
2013,05,01,05,45,3.90
2013,05,01,05,46,3.80
2013,05,01,05,47,3.80
2013,05,01,05,48,3.80
2013,05,01,05,49,3.80
2013,05,01,05,50,3.70
2013,05,01,05,51,3.70
2013,05,01,05,52,3.70
2013,05,01,05,53,3.70
2013,05,01,05,54,3.70
2013,05,01,05,55,3.70
2013,05,01,05,56,3.70
2013,05,01,05,57,3.70
2013,05,01,05,58,3.70
2013,05,01,05,59,3.80
2013,05,01,06,00,3.80
2013,05,01,06,01,3.80
2013,05,01,06,02,3.80
2013,05,01,06,03,3.80
2013,05,01,06,04,3.80
2013,05,01,06,05,3.80
2013,05,01,06,06,3.80
2013,05,01,06,07,3.80
2013,05,01,06,08,3.80
2013,05,01,06,09,3.80
2013,05,01,06,10,3.80
2013,05,01,06,11,3.80
2013,05,01,06,12,3.80
2013,05,01,06,13,3.90
2013,05,01,06,14,3.90
2013,05,01,06,15,3.90
2013,05,01,06,16,3.90
2013,05,01,06,17,4.00
2013,05,01,06,18,4.00
2013,05,01,06,19,4.10
2013,05,01,06,20,4.10
2013,05,01,06,21,4.10
2013,05,01,06,22,4.10
2013,05,01,06,23,4.10
2013,05,01,06,24,4.00
2013,05,01,06,25,4.00
2013,05,01,06,26,4.00
2013,05,01,06,27,4.00
2013,05,01,06,28,4.00
2013,05,01,06,29,4.00
2013,05,01,06,30,3.90
2013,05,01,06,31,3.90
2013,05,01,06,32,3.90
2013,05,01,06,33,3.90
2013,05,01,06,34,3.90
2013,05,01,06,35,3.90
2013,05,01,06,36,4.00
2013,05,01,06,37,4.00
2013,05,01,06,38,4.10
2013,05,01,06,39,4.10
2013,05,01,06,40,4.20
2013,05,01,06,41,4.20
2013,05,01,06,42,4.20
2013,05,01,06,43,4.30
2013,05,01,06,44,4.40
2013,05,01,06,45,4.40
2013,05,01,06,46,4.50
2013,05,01,06,47,4.50
2013,05,01,06,48,4.60
2013,05,01,06,49,4.60
2013,05,01,06,50,4.60
2013,05,01,06,51,4.60
2013,05,01,06,52,4.60
2013,05,01,06,53,4.70
2013,05,01,06,54,4.70
2013,05,01,06,55,4.70
2013,05,01,06,56,4.70
2013,05,01,06,57,4.70
2013,05,01,06,58,4.80
2013,05,01,06,59,4.80
2013,05,01,07,00,4.80
2013,05,01,07,01,4.80
2013,05,01,07,02,4.90
2013,05,01,07,03,4.90
2013,05,01,07,04,5.00
2013,05,01,07,05,5.10
2013,05,01,07,06,5.10
2013,05,01,07,07,5.20
2013,05,01,07,08,5.30
2013,05,01,07,09,5.30
2013,05,01,07,10,5.40
2013,05,01,07,11,5.40
2013,05,01,07,12,5.50
2013,05,01,07,13,5.50
2013,05,01,07,14,5.60
2013,05,01,07,15,5.60
2013,05,01,07,16,5.70
2013,05,01,07,17,5.70
2013,05,01,07,18,5.70
2013,05,01,07,19,5.80
2013,05,01,07,20,5.80
2013,05,01,07,21,5.90
2013,05,01,07,22,5.90
2013,05,01,07,23,5.90
2013,05,01,07,24,6.00
2013,05,01,07,25,6.00
2013,05,01,07,26,6.10
2013,05,01,07,27,6.20
2013,05,01,07,28,6.30
2013,05,01,07,29,6.40
2013,05,01,07,30,6.50
2013,05,01,07,31,6.60
2013,05,01,07,32,6.60
2013,05,01,07,33,6.70
2013,05,01,07,34,6.80
2013,05,01,07,35,6.80
2013,05,01,07,36,6.90
2013,05,01,07,37,7.00
2013,05,01,07,38,7.00
2013,05,01,07,39,7.10
2013,05,01,07,40,7.10
2013,05,01,07,41,7.10
2013,05,01,07,42,7.10
2013,05,01,07,43,7.10
2013,05,01,07,44,7.10
2013,05,01,07,45,7.10
2013,05,01,07,46,7.00
2013,05,01,07,47,7.00
2013,05,01,07,48,7.00
2013,05,01,07,49,7.00
2013,05,01,07,50,7.00
2013,05,01,07,51,7.00
2013,05,01,07,52,7.00
2013,05,01,07,53,7.10
2013,05,01,07,54,7.10
2013,05,01,07,55,7.10
2013,05,01,07,56,7.10
2013,05,01,07,57,7.10
2013,05,01,07,58,7.10
2013,05,01,07,59,7.10
2013,05,01,08,00,7.10
2013,05,01,08,01,7.20
2013,05,01,08,02,7.20
2013,05,01,08,03,7.20
2013,05,01,08,04,7.30
2013,05,01,08,05,7.20
2013,05,01,08,06,7.20
2013,05,01,08,07,7.20
2013,05,01,08,08,7.20
2013,05,01,08,09,7.20
2013,05,01,08,10,7.20
2013,05,01,08,11,7.30
2013,05,01,08,12,7.40
2013,05,01,08,13,7.50
2013,05,01,08,14,7.50
2013,05,01,08,15,7.60
2013,05,01,08,16,7.60
2013,05,01,08,17,7.60
2013,05,01,08,18,7.50
2013,05,01,08,19,7.50
2013,05,01,08,20,7.60
2013,05,01,08,21,7.50
2013,05,01,08,22,7.50
2013,05,01,08,23,7.50
2013,05,01,08,24,7.50
2013,05,01,08,25,7.40
2013,05,01,08,26,7.40
2013,05,01,08,27,7.40
2013,05,01,08,28,7.40
2013,05,01,08,29,7.40
2013,05,01,08,30,7.50
2013,05,01,08,31,7.50
2013,05,01,08,32,7.50
2013,05,01,08,33,7.60
2013,05,01,08,34,7.60
2013,05,01,08,35,7.60
2013,05,01,08,36,7.60
2013,05,01,08,37,7.70
2013,05,01,08,38,7.70
2013,05,01,08,39,7.70
2013,05,01,08,40,7.70
2013,05,01,08,41,7.70
2013,05,01,08,42,7.70
2013,05,01,08,43,7.70
2013,05,01,08,44,7.80
2013,05,01,08,45,7.80
2013,05,01,08,46,7.90
2013,05,01,08,47,8.00
2013,05,01,08,48,8.10
2013,05,01,08,49,8.20
2013,05,01,08,50,8.30
2013,05,01,08,51,8.40
2013,05,01,08,52,8.40
2013,05,01,08,53,8.40
2013,05,01,08,54,8.40
2013,05,01,08,55,8.40
2013,05,01,08,56,8.40
2013,05,01,08,57,8.30
2013,05,01,08,58,8.20
2013,05,01,08,59,8.10
2013,05,01,09,00,8.00
2013,05,01,09,01,7.90
2013,05,01,09,02,7.90
2013,05,01,09,03,8.00
2013,05,01,09,04,8.10
2013,05,01,09,05,8.20
2013,05,01,09,06,8.30
2013,05,01,09,07,8.30
2013,05,01,09,08,8.30
2013,05,01,09,09,8.30
2013,05,01,09,10,8.40
2013,05,01,09,11,8.40
2013,05,01,09,12,8.40
2013,05,01,09,13,8.40
2013,05,01,09,14,8.50
2013,05,01,09,15,8.50
2013,05,01,09,16,8.60
2013,05,01,09,17,8.60
2013,05,01,09,18,8.70
2013,05,01,09,19,8.70
2013,05,01,09,20,8.80
2013,05,01,09,21,8.80
2013,05,01,09,22,8.70
2013,05,01,09,23,8.70
2013,05,01,09,24,8.60
2013,05,01,09,25,8.40
2013,05,01,09,26,8.30
2013,05,01,09,27,8.20
2013,05,01,09,28,8.10
2013,05,01,09,29,8.10
2013,05,01,09,30,8.20
2013,05,01,09,31,8.20
2013,05,01,09,32,8.30
2013,05,01,09,33,8.30
2013,05,01,09,34,8.30
2013,05,01,09,35,8.40
2013,05,01,09,36,8.50
2013,05,01,09,37,8.60
2013,05,01,09,38,8.60
2013,05,01,09,39,8.70
2013,05,01,09,40,8.80
2013,05,01,09,41,8.80
2013,05,01,09,42,8.80
2013,05,01,09,43,8.90
2013,05,01,09,44,8.90
2013,05,01,09,45,9.00
2013,05,01,09,46,8.90
2013,05,01,09,47,8.80
2013,05,01,09,48,8.80
2013,05,01,09,49,8.70
2013,05,01,09,50,8.70
2013,05,01,09,51,8.60
2013,05,01,09,52,8.60
2013,05,01,09,53,8.60
2013,05,01,09,54,8.60
2013,05,01,09,55,8.60
2013,05,01,09,56,8.50
2013,05,01,09,57,8.50
2013,05,01,09,58,8.40
2013,05,01,09,59,8.40
2013,05,01,10,00,8.50
2013,05,01,10,01,8.50
2013,05,01,10,02,8.60
2013,05,01,10,03,8.60
2013,05,01,10,04,8.60
2013,05,01,10,05,8.70
2013,05,01,10,06,8.70
2013,05,01,10,07,8.80
2013,05,01,10,08,8.80
2013,05,01,10,09,8.70
2013,05,01,10,10,8.70
2013,05,01,10,11,8.60
2013,05,01,10,12,8.60
2013,05,01,10,13,8.60
2013,05,01,10,14,8.60
2013,05,01,10,15,8.60
2013,05,01,10,16,8.70
2013,05,01,10,17,8.70
2013,05,01,10,18,8.80
2013,05,01,10,19,8.80
2013,05,01,10,20,8.80
2013,05,01,10,21,8.80
2013,05,01,10,22,8.80
2013,05,01,10,23,8.70
2013,05,01,10,24,8.70
2013,05,01,10,25,8.70
2013,05,01,10,26,8.60
2013,05,01,10,27,8.50
2013,05,01,10,28,8.50
2013,05,01,10,29,8.60
2013,05,01,10,30,8.60
2013,05,01,10,31,8.60
2013,05,01,10,32,8.60
2013,05,01,10,33,8.60
2013,05,01,10,34,8.70
2013,05,01,10,35,8.70
2013,05,01,10,36,8.80
2013,05,01,10,37,8.80
2013,05,01,10,38,8.90
2013,05,01,10,39,9.00
2013,05,01,10,40,9.10
2013,05,01,10,41,9.10
2013,05,01,10,42,9.10
2013,05,01,10,43,9.10
2013,05,01,10,44,9.20
2013,05,01,10,45,9.20
2013,05,01,10,46,9.20
2013,05,01,10,47,9.20
2013,05,01,10,48,9.20
2013,05,01,10,49,9.20
2013,05,01,10,50,9.10
2013,05,01,10,51,9.10
2013,05,01,10,52,9.20
2013,05,01,10,53,9.20
2013,05,01,10,54,9.30
2013,05,01,10,55,9.30
2013,05,01,10,56,9.40
2013,05,01,10,57,9.40
2013,05,01,10,58,9.50
2013,05,01,10,59,9.60
2013,05,01,11,00,9.60
2013,05,01,11,01,9.70
2013,05,01,11,02,9.70
2013,05,01,11,03,9.70
2013,05,01,11,04,9.70
2013,05,01,11,05,9.70
2013,05,01,11,06,9.80
2013,05,01,11,07,9.90
2013,05,01,11,08,9.80
2013,05,01,11,09,9.80
2013,05,01,11,10,9.90
2013,05,01,11,11,9.90
2013,05,01,11,12,10.00
2013,05,01,11,13,10.00
2013,05,01,11,14,10.00
2013,05,01,11,15,10.00
2013,05,01,11,16,10.00
2013,05,01,11,17,10.00
2013,05,01,11,18,10.10
2013,05,01,11,19,10.20
2013,05,01,11,20,10.20
2013,05,01,11,21,10.20
2013,05,01,11,22,10.30
2013,05,01,11,23,10.30
2013,05,01,11,24,10.30
2013,05,01,11,25,10.20
2013,05,01,11,26,10.20
2013,05,01,11,27,10.30
2013,05,01,11,28,10.30
2013,05,01,11,29,10.30
2013,05,01,11,30,10.30
2013,05,01,11,31,10.30
2013,05,01,11,32,10.30
2013,05,01,11,33,10.30
2013,05,01,11,34,10.30
2013,05,01,11,35,10.40
2013,05,01,11,36,10.50
2013,05,01,11,37,10.50
2013,05,01,11,38,10.60
2013,05,01,11,39,10.60
2013,05,01,11,40,10.60
2013,05,01,11,41,10.70
2013,05,01,11,42,10.80
2013,05,01,11,43,10.80
2013,05,01,11,44,10.70
2013,05,01,11,45,10.80
2013,05,01,11,46,10.80
2013,05,01,11,47,10.90
2013,05,01,11,48,10.90
2013,05,01,11,49,10.90
2013,05,01,11,50,10.90
2013,05,01,11,51,10.90
2013,05,01,11,52,10.90
2013,05,01,11,53,10.80
2013,05,01,11,54,10.90
2013,05,01,11,55,10.90
2013,05,01,11,56,11.00
2013,05,01,11,57,11.10
2013,05,01,11,58,11.20
2013,05,01,11,59,11.30
2013,05,01,12,00,11.40
2013,05,01,12,01,11.40
2013,05,01,12,02,11.40
2013,05,01,12,03,11.40
2013,05,01,12,04,11.50
2013,05,01,12,05,11.50
2013,05,01,12,06,11.50
2013,05,01,12,07,11.40
2013,05,01,12,08,11.30
2013,05,01,12,09,11.40
2013,05,01,12,10,11.50
2013,05,01,12,11,11.70
2013,05,01,12,12,11.80
2013,05,01,12,13,11.90
2013,05,01,12,14,12.10
2013,05,01,12,15,12.10
2013,05,01,12,16,12.10
2013,05,01,12,17,12.20
2013,05,01,12,18,12.10
2013,05,01,12,19,12.00
2013,05,01,12,20,12.00
2013,05,01,12,21,12.00
2013,05,01,12,22,12.00
2013,05,01,12,23,11.90
2013,05,01,12,24,11.90
2013,05,01,12,25,12.00
2013,05,01,12,26,12.00
2013,05,01,12,27,12.10
2013,05,01,12,28,12.10
2013,05,01,12,29,12.10
2013,05,01,12,30,12.10
2013,05,01,12,31,12.00
2013,05,01,12,32,11.90
2013,05,01,12,33,11.70
2013,05,01,12,34,11.60
2013,05,01,12,35,11.60
2013,05,01,12,36,11.60
2013,05,01,12,37,11.60
2013,05,01,12,38,11.70
2013,05,01,12,39,11.60
2013,05,01,12,40,11.50
2013,05,01,12,41,11.40
2013,05,01,12,42,11.50
2013,05,01,12,43,11.40
2013,05,01,12,44,11.30
2013,05,01,12,45,11.30
2013,05,01,12,46,11.30
2013,05,01,12,47,11.40
2013,05,01,12,48,11.50
2013,05,01,12,49,11.60
2013,05,01,12,50,11.70
2013,05,01,12,51,11.80
2013,05,01,12,52,11.90
2013,05,01,12,53,12.00
2013,05,01,12,54,12.20
2013,05,01,12,55,12.40
2013,05,01,12,56,12.50
2013,05,01,12,57,12.50
2013,05,01,12,58,12.50
2013,05,01,12,59,12.50
2013,05,01,13,00,12.40
2013,05,01,13,01,12.20
2013,05,01,13,02,12.00
2013,05,01,13,03,11.90
2013,05,01,13,04,11.90
2013,05,01,13,05,11.80
2013,05,01,13,06,11.70
2013,05,01,13,07,11.80
2013,05,01,13,08,11.80
2013,05,01,13,09,11.80
2013,05,01,13,10,11.80
2013,05,01,13,11,11.90
2013,05,01,13,12,11.90
2013,05,01,13,13,12.00
2013,05,01,13,14,12.00
2013,05,01,13,15,12.00
2013,05,01,13,16,11.90
2013,05,01,13,17,12.00
2013,05,01,13,18,12.00
2013,05,01,13,19,11.90
2013,05,01,13,20,12.00
2013,05,01,13,21,12.00
2013,05,01,13,22,12.00
2013,05,01,13,23,12.10
2013,05,01,13,24,12.20
2013,05,01,13,25,12.30
2013,05,01,13,26,12.30
2013,05,01,13,27,12.30
2013,05,01,13,28,12.30
2013,05,01,13,29,12.30
2013,05,01,13,30,12.40
2013,05,01,13,31,12.50
2013,05,01,13,32,12.60
2013,05,01,13,33,12.60
2013,05,01,13,34,12.60
2013,05,01,13,35,12.60
2013,05,01,13,36,12.60
2013,05,01,13,37,12.60
2013,05,01,13,38,12.60
2013,05,01,13,39,12.60
2013,05,01,13,40,12.70
2013,05,01,13,41,12.80
2013,05,01,13,42,13.00
2013,05,01,13,43,13.00
2013,05,01,13,44,13.00
2013,05,01,13,45,13.10
2013,05,01,13,46,13.20
2013,05,01,13,47,13.30
2013,05,01,13,48,13.30
2013,05,01,13,49,13.30
2013,05,01,13,50,13.30
2013,05,01,13,51,13.40
2013,05,01,13,52,13.40
2013,05,01,13,53,13.40
2013,05,01,13,54,13.50
2013,05,01,13,55,13.50
2013,05,01,13,56,13.60
2013,05,01,13,57,13.60
2013,05,01,13,58,13.60
2013,05,01,13,59,13.60
2013,05,01,14,00,13.50
2013,05,01,14,01,13.30
2013,05,01,14,02,13.10
2013,05,01,14,03,13.00
2013,05,01,14,04,13.00
2013,05,01,14,05,13.10
2013,05,01,14,06,13.20
2013,05,01,14,07,13.30
2013,05,01,14,08,13.40
2013,05,01,14,09,13.50
2013,05,01,14,10,13.40
2013,05,01,14,11,13.20
2013,05,01,14,12,13.10
2013,05,01,14,13,13.00
2013,05,01,14,14,13.00
2013,05,01,14,15,13.00
2013,05,01,14,16,12.90
2013,05,01,14,17,12.80
2013,05,01,14,18,12.80
2013,05,01,14,19,12.70
2013,05,01,14,20,12.70
2013,05,01,14,21,12.80
2013,05,01,14,22,12.80
2013,05,01,14,23,12.80
2013,05,01,14,24,12.80
2013,05,01,14,25,12.80
2013,05,01,14,26,12.80
2013,05,01,14,27,12.80
2013,05,01,14,28,12.80
2013,05,01,14,29,12.80
2013,05,01,14,30,12.80
2013,05,01,14,31,12.90
2013,05,01,14,32,12.90
2013,05,01,14,33,12.90
2013,05,01,14,34,12.70
2013,05,01,14,35,12.40
2013,05,01,14,36,12.40
2013,05,01,14,37,12.40
2013,05,01,14,38,12.40
2013,05,01,14,39,12.40
2013,05,01,14,40,12.40
2013,05,01,14,41,12.40
2013,05,01,14,42,12.50
2013,05,01,14,43,12.50
2013,05,01,14,44,12.60
2013,05,01,14,45,12.70
2013,05,01,14,46,12.80
2013,05,01,14,47,12.80
2013,05,01,14,48,12.80
2013,05,01,14,49,12.70
2013,05,01,14,50,12.70
2013,05,01,14,51,12.70
2013,05,01,14,52,12.70
2013,05,01,14,53,12.80
2013,05,01,14,54,12.80
2013,05,01,14,55,12.90
2013,05,01,14,56,13.00
2013,05,01,14,57,13.10
2013,05,01,14,58,13.20
2013,05,01,14,59,13.30
2013,05,01,15,00,13.30
2013,05,01,15,01,13.40
2013,05,01,15,02,13.50
2013,05,01,15,03,13.60
2013,05,01,15,04,13.70
2013,05,01,15,05,13.70
2013,05,01,15,06,13.70
2013,05,01,15,07,13.80
2013,05,01,15,08,13.80
2013,05,01,15,09,13.80
2013,05,01,15,10,13.90
2013,05,01,15,11,14.00
2013,05,01,15,12,14.10
2013,05,01,15,13,14.10
2013,05,01,15,14,14.10
2013,05,01,15,15,14.10
2013,05,01,15,16,14.20
2013,05,01,15,17,14.20
2013,05,01,15,18,14.20
2013,05,01,15,19,14.10
2013,05,01,15,20,14.00
2013,05,01,15,21,14.00
2013,05,01,15,22,13.90
2013,05,01,15,23,13.80
2013,05,01,15,24,13.80
2013,05,01,15,25,13.70
2013,05,01,15,26,13.70
2013,05,01,15,27,13.70
2013,05,01,15,28,13.80
2013,05,01,15,29,13.80
2013,05,01,15,30,13.80
2013,05,01,15,31,13.80
2013,05,01,15,32,13.80
2013,05,01,15,33,13.70
2013,05,01,15,34,13.60
2013,05,01,15,35,13.60
2013,05,01,15,36,13.70
2013,05,01,15,37,13.60
2013,05,01,15,38,13.50
2013,05,01,15,39,13.40
2013,05,01,15,40,13.30
2013,05,01,15,41,13.20
2013,05,01,15,42,13.20
2013,05,01,15,43,13.20
2013,05,01,15,44,13.10
2013,05,01,15,45,13.10
2013,05,01,15,46,13.10
2013,05,01,15,47,13.00
2013,05,01,15,48,13.00
2013,05,01,15,49,13.00
2013,05,01,15,50,13.00
2013,05,01,15,51,13.00
2013,05,01,15,52,13.00
2013,05,01,15,53,13.00
2013,05,01,15,54,13.00
2013,05,01,15,55,13.00
2013,05,01,15,56,13.00
2013,05,01,15,57,13.00
2013,05,01,15,58,13.00
2013,05,01,15,59,12.90
2013,05,01,16,00,12.90
2013,05,01,16,01,12.90
2013,05,01,16,02,12.90
2013,05,01,16,03,12.90
2013,05,01,16,04,12.90
2013,05,01,16,05,12.90
2013,05,01,16,06,12.80
2013,05,01,16,07,12.80
2013,05,01,16,08,12.80
2013,05,01,16,09,12.80
2013,05,01,16,10,12.70
2013,05,01,16,11,12.70
2013,05,01,16,12,12.70
2013,05,01,16,13,12.70
2013,05,01,16,14,12.70
2013,05,01,16,15,12.80
2013,05,01,16,16,12.80
2013,05,01,16,17,12.90
2013,05,01,16,18,13.00
2013,05,01,16,19,13.00
2013,05,01,16,20,12.90
2013,05,01,16,21,13.00
2013,05,01,16,22,12.90
2013,05,01,16,23,12.90
2013,05,01,16,24,12.90
2013,05,01,16,25,12.90
2013,05,01,16,26,12.90
2013,05,01,16,27,13.00
2013,05,01,16,28,13.10
2013,05,01,16,29,13.10
2013,05,01,16,30,13.10
2013,05,01,16,31,13.20
2013,05,01,16,32,13.20
2013,05,01,16,33,13.30
2013,05,01,16,34,13.30
2013,05,01,16,35,13.30
2013,05,01,16,36,13.20
2013,05,01,16,37,13.20
2013,05,01,16,38,13.10
2013,05,01,16,39,13.00
2013,05,01,16,40,12.90
2013,05,01,16,41,12.90
2013,05,01,16,42,12.90
2013,05,01,16,43,12.90
2013,05,01,16,44,12.90
2013,05,01,16,45,12.90
2013,05,01,16,46,13.00
2013,05,01,16,47,13.10
2013,05,01,16,48,13.10
2013,05,01,16,49,13.10
2013,05,01,16,50,13.20
2013,05,01,16,51,13.30
2013,05,01,16,52,13.20
2013,05,01,16,53,13.20
2013,05,01,16,54,13.30
2013,05,01,16,55,13.30
2013,05,01,16,56,13.20
2013,05,01,16,57,13.20
2013,05,01,16,58,13.20
2013,05,01,16,59,13.20
2013,05,01,17,00,13.20
2013,05,01,17,01,13.20
2013,05,01,17,02,13.10
2013,05,01,17,03,13.10
2013,05,01,17,04,13.10
2013,05,01,17,05,13.10
2013,05,01,17,06,13.20
2013,05,01,17,07,13.20
2013,05,01,17,08,13.20
2013,05,01,17,09,13.20
2013,05,01,17,10,13.30
2013,05,01,17,11,13.30
2013,05,01,17,12,13.30
2013,05,01,17,13,13.20
2013,05,01,17,14,13.20
2013,05,01,17,15,13.10
2013,05,01,17,16,13.10
2013,05,01,17,17,13.00
2013,05,01,17,18,13.00
2013,05,01,17,19,12.90
2013,05,01,17,20,12.80
2013,05,01,17,21,12.70
2013,05,01,17,22,12.70
2013,05,01,17,23,12.70
2013,05,01,17,24,12.70
2013,05,01,17,25,12.70
2013,05,01,17,26,12.80
2013,05,01,17,27,12.80
2013,05,01,17,28,12.80
2013,05,01,17,29,12.90
2013,05,01,17,30,12.90
2013,05,01,17,31,13.00
2013,05,01,17,32,13.10
2013,05,01,17,33,13.10
2013,05,01,17,34,13.10
2013,05,01,17,35,13.20
2013,05,01,17,36,13.20
2013,05,01,17,37,13.20
2013,05,01,17,38,13.20
2013,05,01,17,39,13.20
2013,05,01,17,40,13.20
2013,05,01,17,41,13.20
2013,05,01,17,42,13.20
2013,05,01,17,43,13.10
2013,05,01,17,44,13.10
2013,05,01,17,45,13.10
2013,05,01,17,46,13.10
2013,05,01,17,47,13.00
2013,05,01,17,48,13.00
2013,05,01,17,49,13.00
2013,05,01,17,50,13.00